Location: Milton
(43.5183°N, 79.8775°W)
Time: 16:37:04
(UTC+00:00)

NOAA 15 - Pass Details

Date: 03 April 2023
Orbit: 796 x 811 km, 98.6° (Epoch: 29 May)

Event Time Altitude Azimuth Distance (km) Brightness Sun altitude
Rises 00:41:02 0° 181° (S) 3,318 7.6 -10.3°
Reaches altitude 10° 00:43:27 10° 187° (S) 2,390 7.0 -10.8°
Maximum altitude 00:48:32 47° 261° (W) 1,071 5.7 -11.6°
Drops below altitude 10° 00:53:38 10° 335° (NNW) 2,400 7.7 -12.5°
Sets 00:56:04 0° 341° (NNW) 3,333 8.4 -12.9°
